• Em Portugal
  • Lista de países
  • Para 7 dias
  • Temperatura da água
  • Mapas de satélite
  • Mapa do tempo
  • Widgets de tempo
  • user-avatar
    Iniciar Sessão

    Previsão horária em Basejn

    Hoje, 17 Dezembro, Domingo

    Tempo Temperatura Precipitação Vento Pressão Humidade
    00:00 +23°C° 0 mm 2 m/s 760 mmHg 73%
    01:00 +23°C° 0 mm 2 m/s 760 mmHg 72%
    02:00 +23°C° 0 mm 2 m/s 759 mmHg 72%
    03:00 +23°C° 0 mm 2 m/s 759 mmHg 71%
    04:00 +23°C° 0 mm 2 m/s 759 mmHg 71%
    05:00 +21°C° 0 mm 2 m/s 760 mmHg 72%
    06:00 +21°C° 0 mm 2 m/s 760 mmHg 73%
    07:00 +22°C° 0 mm 3 m/s 760 mmHg 69%
    08:00 +25°C° 0 mm 3 m/s 761 mmHg 66%
    09:00 +27°C° 0 mm 4 m/s 761 mmHg 62%
    10:00 +29°C° 0 mm 3 m/s 761 mmHg 58%
    11:00 +30°C° 0 mm 3 m/s 760 mmHg 55%
    12:00 +33°C° 0 mm 3 m/s 760 mmHg 50%
    13:00 +33°C° 0 mm 3 m/s 760 mmHg 50%
    14:00 +32°C° 0 mm 2 m/s 759 mmHg 50%
    15:00 +34°C° 0 mm 2 m/s 759 mmHg 50%
    16:00 +31°C° 0 mm 2 m/s 759 mmHg 55%
    17:00 +29°C° 0 mm 2 m/s 759 mmHg 60%
    18:00 +28°C° 0 mm 2 m/s 759 mmHg 65%
    19:00 +27°C° 0 mm 2 m/s 760 mmHg 68%
    20:00 +26°C° 0 mm 1 m/s 760 mmHg 71%
    21:00 +25°C° 0 mm 1 m/s 761 mmHg 74%
    22:00 +25°C° 0 mm 1 m/s 760 mmHg 76%
    23:00 +25°C° 0 mm 1 m/s 760 mmHg 77%

    Amanhã, 18 Dezembro, Segunda-feira

    Tempo Temperatura Precipitação Vento Pressão Humidade
    00:00 +24°C° 0 mm 1 m/s 760 mmHg 78%
    01:00 +24°C° 0 mm 1 m/s 760 mmHg 79%
    02:00 +24°C° 0 mm 1 m/s 760 mmHg 79%
    03:00 +23°C° 0 mm 1 m/s 759 mmHg 80%
    04:00 +23°C° 0 mm 1 m/s 759 mmHg 80%
    05:00 +23°C° 0 mm 2 m/s 760 mmHg 80%
    06:00 +23°C° 0 mm 2 m/s 760 mmHg 80%
    07:00 +25°C° 0 mm 2 m/s 760 mmHg 75%
    08:00 +26°C° 0 mm 3 m/s 761 mmHg 70%
    09:00 +28°C° 0 mm 4 m/s 761 mmHg 64%
    10:00 +29°C° 0 mm 3 m/s 761 mmHg 60%
    11:00 +31°C° 0 mm 3 m/s 761 mmHg 56%
    12:00 +33°C° 0 mm 3 m/s 760 mmHg 52%
    13:00 +33°C° 0 mm 3 m/s 760 mmHg 52%
    14:00 +33°C° 0 mm 3 m/s 759 mmHg 52%
    15:00 +33°C° 0 mm 3 m/s 759 mmHg 52%
    16:00 +30°C° 0 mm 2 m/s 759 mmHg 56%
    17:00 +29°C° 0 mm 2 m/s 759 mmHg 60%
    18:00 +28°C° 0 mm 2 m/s 759 mmHg 65%
    19:00 +27°C° 0 mm 2 m/s 760 mmHg 67%
    20:00 +26°C° 0 mm 2 m/s 760 mmHg 70%
    21:00 +25°C° 0 mm 2 m/s 761 mmHg 73%
    22:00 +25°C° 0 mm 2 m/s 761 mmHg 74%
    23:00 +25°C° 0 mm 1 m/s 760 mmHg 76%

    Depois de amanhã, 19 Dezembro, Terça-feira

    Tempo Temperatura Precipitação Vento Pressão Humidade
    00:00 +24°C° 0 mm 1 m/s 760 mmHg 77%
    01:00 +24°C° 0 mm 1 m/s 760 mmHg 77%
    02:00 +24°C° 0 mm 1 m/s 760 mmHg 77%
    03:00 +24°C° 0 mm 1 m/s 759 mmHg 77%
    04:00 +24°C° 0 mm 2 m/s 760 mmHg 75%
    05:00 +24°C° 0 mm 2 m/s 760 mmHg 74%
    06:00 +24°C° 0 mm 2 m/s 760 mmHg 72%
    07:00 +25°C° 0 mm 3 m/s 761 mmHg 69%
    08:00 +27°C° 0 mm 3 m/s 761 mmHg 67%
    09:00 +28°C° 0 mm 4 m/s 762 mmHg 64%
    10:00 +29°C° 0 mm 4 m/s 762 mmHg 60%
    11:00 +30°C° 0 mm 3 m/s 761 mmHg 55%
    12:00 +31°C° 0 mm 3 m/s 760 mmHg 51%
    13:00 +33°C° 0 mm 3 m/s 760 mmHg 50%
    14:00 +33°C° 0 mm 3 m/s 759 mmHg 48%
    15:00 +33°C° 0 mm 3 m/s 758 mmHg 47%
    16:00 +30°C° 0 mm 2 m/s 759 mmHg 52%
    17:00 +29°C° 0 mm 2 m/s 759 mmHg 57%
    18:00 +27°C° 0 mm 2 m/s 760 mmHg 63%
    19:00 +26°C° 0 mm 2 m/s 760 mmHg 65%
    20:00 +25°C° 0 mm 2 m/s 761 mmHg 68%
    21:00 +25°C° 0 mm 1 m/s 761 mmHg 71%
    22:00 +24°C° 0 mm 1 m/s 761 mmHg 72%
    23:00 +24°C° 0 mm 1 m/s 761 mmHg 73%

    20 Dezembro, Quarta-feira

    Tempo Temperatura Precipitação Vento Pressão Humidade
    00:00 +24°C° 0 mm 1 m/s 761 mmHg 74%
    01:00 +24°C° 0 mm 1 m/s 761 mmHg 74%
    02:00 +24°C° 0 mm 1 m/s 760 mmHg 74%
    03:00 +24°C° 0 mm 2 m/s 760 mmHg 75%
    04:00 +23°C° 0 mm 2 m/s 760 mmHg 76%
    05:00 +23°C° 0 mm 2 m/s 761 mmHg 78%
    06:00 +22°C° 0 mm 3 m/s 761 mmHg 79%
    07:00 +24°C° 0 mm 3 m/s 762 mmHg 71%
    08:00 +26°C° 0 mm 3 m/s 762 mmHg 64%
    09:00 +27°C° 0 mm 4 m/s 763 mmHg 56%
    10:00 +29°C° 0 mm 4 m/s 762 mmHg 51%
    11:00 +30°C° 0 mm 3 m/s 762 mmHg 46%
    12:00 +31°C° 0 mm 3 m/s 761 mmHg 41%
    13:00 +31°C° 0 mm 3 m/s 761 mmHg 41%
    14:00 +31°C° 0 mm 3 m/s 760 mmHg 40%
    15:00 +31°C° 0 mm 3 m/s 759 mmHg 40%
    16:00 +29°C° 0 mm 3 m/s 760 mmHg 44%
    17:00 +27°C° 0 mm 2 m/s 760 mmHg 49%
    18:00 +25°C° 0 mm 2 m/s 760 mmHg 54%
    19:00 +25°C° 0 mm 2 m/s 761 mmHg 56%
    20:00 +24°C° 0 mm 2 m/s 762 mmHg 59%
    21:00 +23°C° 0 mm 1 m/s 762 mmHg 61%
    22:00 +23°C° 0 mm 1 m/s 762 mmHg 62%
    23:00 +22°C° 0 mm 1 m/s 762 mmHg 63%

    21 Dezembro, Quinta-feira

    Tempo Temperatura Precipitação Vento Pressão Humidade
    00:00 +22°C° 0 mm 1 m/s 761 mmHg 64%
    01:00 +22°C° 0 mm 1 m/s 761 mmHg 65%
    02:00 +20°C° 0 mm 2 m/s 761 mmHg 66%
    03:00 +20°C° 0 mm 2 m/s 760 mmHg 67%
    04:00 +20°C° 0 mm 2 m/s 760 mmHg 68%
    05:00 +20°C° 0 mm 2 m/s 761 mmHg 70%
    06:00 +19°C° 0 mm 2 m/s 761 mmHg 71%
    07:00 +21°C° 0 mm 3 m/s 762 mmHg 65%
    08:00 +24°C° 0 mm 3 m/s 762 mmHg 58%
    09:00 +26°C° 0 mm 3 m/s 763 mmHg 52%
    10:00 +27°C° 0 mm 3 m/s 763 mmHg 47%
    11:00 +28°C° 0 mm 3 m/s 762 mmHg 41%
    12:00 +30°C° 0 mm 3 m/s 761 mmHg 36%
    13:00 +30°C° 0 mm 3 m/s 761 mmHg 36%
    14:00 +30°C° 0 mm 3 m/s 760 mmHg 35%
    15:00 +30°C° 0 mm 3 m/s 759 mmHg 35%
    16:00 +28°C° 0 mm 2 m/s 759 mmHg 40%
    17:00 +26°C° 0 mm 2 m/s 760 mmHg 44%
    18:00 +24°C° 0 mm 2 m/s 760 mmHg 49%
    19:00 +23°C° 0 mm 2 m/s 760 mmHg 50%
    20:00 +23°C° 0 mm 2 m/s 761 mmHg 52%
    21:00 +21°C° 0 mm 2 m/s 761 mmHg 53%
    22:00 +21°C° 0 mm 2 m/s 760 mmHg 56%
    23:00 +20°C° 0 mm 2 m/s 760 mmHg 59%

    22 Dezembro, Sexta-feira

    Tempo Temperatura Precipitação Vento Pressão Humidade
    00:00 +20°C° 0 mm 2 m/s 760 mmHg 62%
    01:00 +19°C° 0 mm 2 m/s 759 mmHg 63%
    02:00 +19°C° 0 mm 2 m/s 759 mmHg 64%
    03:00 +19°C° 0 mm 2 m/s 759 mmHg 65%
    04:00 +19°C° 0 mm 2 m/s 759 mmHg 66%
    05:00 +18°C° 0 mm 2 m/s 759 mmHg 67%
    06:00 +18°C° 0 mm 2 m/s 760 mmHg 67%
    07:00 +20°C° 0 mm 2 m/s 760 mmHg 64%
    08:00 +23°C° 0 mm 2 m/s 761 mmHg 60%
    09:00 +25°C° 0 mm 3 m/s 761 mmHg 57%
    10:00 +27°C° 0 mm 3 m/s 761 mmHg 51%
    11:00 +29°C° 0 mm 2 m/s 760 mmHg 45%
    12:00 +30°C° 0 mm 2 m/s 760 mmHg 39%
    13:00 +31°C° 0 mm 2 m/s 759 mmHg 38%
    14:00 +31°C° 0 mm 2 m/s 758 mmHg 36%
    15:00 +31°C° 0 mm 2 m/s 758 mmHg 35%
    16:00 +29°C° 0 mm 2 m/s 758 mmHg 41%
    17:00 +27°C° 0 mm 2 m/s 758 mmHg 48%
    18:00 +25°C° 0 mm 1 m/s 758 mmHg 54%
    19:00 +24°C° 0 mm 1 m/s 759 mmHg 58%
    20:00 +23°C° 0 mm 1 m/s 759 mmHg 63%
    21:00 +23°C° 0 mm 1 m/s 759 mmHg 68%
    22:00 +21°C° 0 mm 2 m/s 759 mmHg 71%
    23:00 +21°C° 0 mm 2 m/s 759 mmHg 75%
    Mostrar mais